GFSMW_700_temp_021.txt.gz
Temp
13 13 13 13 12 12 13 12 12 11 12 12 12 11 11 11 10 10 9 9 9 9 9 9 9 9 10 10 10 9 9 9 9 9 8 7 7 7 7 7 7 8 8
14 14 13 13 13 13 13 13 13 12 12 12 12 11 11 10 10 10 9 9 9 9 9 9 9 10 10 10 9 9 8 8 9 9 8 8 7 7 7 7 7 7 7
14 15 14 14 13 13 14 13 13 13 13 12 12 12 11 11 11 11 10 10 9 9 9 9 10 10 10 9 9 8 8 8 9 9 9 8 8 8 8 7 7 7 7
14 14 14 14 14 14 14 14 13 13 13 13 13 12 12 12 11 11 10 10 10 9 9 9 10 10 10 9 9 9 8 9 9 9 9 9 8 8 7 7 7 7 7
15 14 14 14 14 14 14 14 13 13 13 13 13 13 12 12 11 11 11 10 10 10 10 10 10 10 10 9 9 9 9 9 9 9 9 9 9 8 8 7 7 7 6
15 14 14 14 14 14 14 14 14 13 13 13 13 13 13 12 12 12 11 11 11 10 11 11 10 10 10 10 9 9 9 9 9 9 9 9 8 8 8 7 7 7 7
16 15 15 15 14 14 14 14 14 14 13 13 13 13 13 13 12 12 12 11 11 11 11 11 11 10 10 10 10 9 9 9 9 9 9 9 9 8 8 8 7 7 7
17 16 16 16 15 15 14 14 14 14 14 13 13 13 13 13 13 12 12 12 12 11 11 11 11 10 10 10 10 9 9 9 9 9 9 8 8 8 8 7 7 7 7
18 18 17 16 16 16 15 15 14 14 14 14 14 14 13 13 13 13 12 12 12 11 11 11 11 11 10 10 10 10 10 10 9 9 9 9 8 8 8 8 7 7 7
18 18 18 17 17 17 16 16 15 15 14 14 14 14 14 13 13 13 12 12 12 12 11 11 11 11 11 11 10 10 10 10 10 9 9 9 9 8 8 8 7 7 7
18 18 18 18 18 17 17 17 16 16 15 15 14 14 13 13 13 12 12 12 12 12 12 12 12 11 11 11 11 11 11 10 10 10 10 9 9 9 8 8 7 7 7
18 18 18 18 18 18 18 17 17 17 16 16 15 15 14 13 13 12 12 11 12 12 12 12 12 12 11 11 11 11 11 11 10 10 10 10 9 9 9 8 7 7 7
18 18 18 18 18 18 18 18 18 17 16 16 16 15 15 14 14 14 12 11 12 13 12 12 12 12 12 11 11 11 11 11 11 10 10 10 10 8 8 8 8 7 7
17 17 18 18 18 18 18 18 18 18 17 17 16 16 15 15 15 14 13 13 12 13 13 13 13 12 12 12 11 11 11 11 11 11 11 10 9 7 8 8 7 7 7
17 17 17 18 18 18 18 19 19 18 18 17 17 17 16 16 15 15 14 15 14 14 13 13 13 13 12 12 12 12 12 12 11 11 11 11 10 8 8 8 8 7 7
16 17 17 17 17 18 19 19 19 18 18 17 17 17 17 16 16 15 14 14 15 14 14 13 13 13 13 12 12 12 12 12 11 11 11 11 10 10 9 8 9 8 8
16 17 17 17 17 18 19 19 19 19 18 18 17 17 17 17 16 16 15 15 15 15 15 14 13 14 13 13 12 12 12 12 12 12 12 11 10 9 9 9 9 9 8
17 17 17 17 17 18 18 19 19 19 18 18 18 18 18 17 17 16 16 15 15 15 15 15 14 14 14 13 13 13 12 12 12 12 12 11 11 10 10 9 9 9 8
17 17 17 17 18 18 18 19 18 18 18 18 18 18 18 18 17 17 16 16 15 15 15 15 14 14 14 14 13 13 12 12 13 12 12 12 11 11 10 9 9 9 8
16 17 17 17 18 18 18 19 19 18 18 18 18 18 18 17 18 17 16 16 15 15 15 15 15 14 14 14 13 13 13 13 13 13 12 11 11 10 10 9 9 9 8
16 17 17 17 17 18 18 18 18 18 18 18 18 18 18 18 18 17 17 16 16 15 15 15 15 15 14 14 13 13 13 13 13 13 12 11 10 10 10 9 9 8 8
16 17 17 17 17 17 17 18 18 18 18 18 18 18 18 18 18 17 17 16 16 15 15 15 14 15 15 14 14 13 13 13 13 13 12 10 10 10 10 10 9 8 7
16 17 17 17 17 17 17 17 17 18 18 18 18 18 18 18 18 18 17 16 16 16 16 16 15 14 15 14 14 13 13 13 12 12 10 9 9 9 9 10 8 7 7
16 16 17 17 17 17 17 17 17 17 17 17 17 17 18 18 17 17 17 17 17 17 16 16 16 15 14 14 14 13 12 12 11 10 8 8 8 6 10 9 8 7 7
16 16 16 17 17 17 17 17 17 17 17 17 17 17 17 17 17 17 17 17 17 16 16 15 16 15 15 15 14 12 11 10 10 9 7 6 5 6 8 8 7 6 6
13 14 14 15 15 15 16 16 16 16 16 17 17 17 17 17 17 17 17 17 17 16 16 16 16 15 14 14 12 10 10 9 9 7 6 5 6 6 7 6 6 6 5

GFSMW_700_temp_024.txt.gz
Temp
14 13 13 12 12 12 12 12 12 12 11 11 11 11 11 11 10 10 10 9 9 9 9 9 9 9 9 9 8 8 9 9 9 9 8 8 8 7 7 4 5 8 8
14 13 13 13 13 12 12 12 12 12 12 12 12 12 11 11 11 10 10 10 10 10 9 9 9 9 9 9 9 8 8 9 9 8 6 5 6 7 6 7 7 7 8
14 14 14 14 13 13 13 13 13 12 12 12 12 12 11 11 11 11 11 10 10 10 10 10 10 10 10 9 9 8 8 9 9 9 7 5 6 5 7 7 7 7 7
14 14 14 14 14 14 13 13 13 13 13 13 12 12 12 12 11 11 11 10 10 10 10 10 10 10 10 10 9 9 9 9 9 9 9 9 8 5 6 7 7 7 7
15 15 15 15 14 14 13 13 13 13 13 13 13 12 12 12 11 11 11 11 11 10 10 10 10 10 10 10 10 9 9 9 9 9 9 9 9 8 8 6 5 7 7
17 16 15 14 14 14 14 14 13 13 13 13 13 13 13 12 12 12 11 11 11 11 10 11 11 11 10 10 10 10 10 10 9 9 9 9 9 9 8 8 7 6 5
17 16 15 15 14 14 14 14 14 14 13 13 13 13 13 13 12 12 11 11 11 11 11 11 11 11 10 10 10 10 10 10 10 10 10 9 9 9 9 8 8 7 7
17 17 17 16 15 15 14 14 14 14 14 13 13 13 13 13 13 12 12 12 12 11 11 11 11 11 11 10 10 10 10 10 10 10 10 10 9 9 9 9 8 8 8
17 17 17 16 16 15 15 14 14 14 14 14 13 13 13 13 13 13 12 12 12 12 11 12 12 11 11 11 10 10 10 10 10 10 10 10 9 9 9 9 9 8 7
18 18 17 17 17 17 16 15 15 14 14 14 14 14 14 13 13 13 13 13 12 12 12 12 12 12 11 11 11 11 10 10 10 10 10 10 10 10 9 8 8 8 8
17 18 18 18 17 17 17 17 16 15 14 14 14 14 14 14 14 13 13 13 13 12 12 12 12 12 11 11 11 11 11 11 11 11 11 10 9 9 9 9 8 8 8
17 18 18 18 18 18 17 17 17 17 16 15 15 14 14 14 14 14 13 13 13 13 12 12 12 12 12 12 11 11 11 11 11 11 11 10 10 9 9 9 8 8 8
17 18 18 18 18 18 18 18 18 17 17 16 16 15 15 14 14 14 13 13 12 13 13 13 13 13 13 12 12 12 12 11 11 11 11 11 10 10 10 9 9 8 8
16 17 18 18 18 18 18 18 18 18 17 17 17 16 16 16 15 14 14 13 13 12 13 13 13 13 13 13 12 12 12 12 11 11 11 11 11 10 10 9 9 8 8
16 16 17 17 18 18 18 18 18 18 18 17 17 17 16 16 15 15 14 14 13 13 13 13 13 13 13 13 13 12 12 12 12 11 11 12 11 10 9 9 9 8 8
16 16 17 17 17 17 18 18 18 18 18 18 17 17 17 16 16 15 15 14 14 14 13 14 14 14 14 14 14 13 13 12 12 12 12 12 12 11 11 10 10 9 8
16 16 16 17 17 17 18 18 18 18 18 18 18 17 17 17 16 16 16 15 15 14 14 15 15 15 14 14 14 14 13 13 13 12 12 12 12 11 11 11 10 9 9
16 17 17 16 17 17 17 18 19 19 19 19 18 18 17 17 17 17 17 16 16 15 15 15 15 15 15 15 14 14 13 13 13 12 12 12 11 11 11 11 10 10 10
16 16 17 17 17 17 17 18 19 19 19 19 18 18 18 18 17 17 17 17 16 16 16 16 15 15 15 15 14 14 13 13 13 12 12 12 12 12 11 11 11 10 9
16 16 17 17 17 17 17 18 18 19 19 19 18 18 18 18 18 18 17 17 17 16 16 16 16 15 15 15 15 14 14 13 13 13 13 13 12 12 11 11 10 10 9
16 16 16 17 17 17 18 18 18 18 19 18 18 18 18 18 18 18 18 18 17 17 16 16 16 15 15 15 15 15 14 14 13 13 13 13 13 12 11 10 9 9 9
16 16 16 16 17 17 17 17 18 18 18 18 18 18 18 18 18 18 18 18 18 17 17 16 16 16 16 15 15 15 14 14 13 14 13 13 13 12 10 10 10 9 7
15 16 16 16 17 17 17 17 17 18 18 18 18 18 18 18 18 18 18 18 18 17 17 17 16 17 16 15 16 15 15 14 14 13 13 13 12 11 11 10 9 8 7
15 16 16 16 17 17 17 17 17 17 17 18 18 18 18 18 18 18 18 18 18 18 17 17 17 16 16 16 16 16 15 14 13 13 13 13 11 11 11 10 8 9 5
15 15 16 16 16 17 17 17 17 17 17 17 17 17 17 17 17 17 17 17 17 17 17 16 16 16 16 16 16 16 15 14 13 13 12 11 11 10 10 8 8 9 7
14 15 15 15 16 16 16 17 17 17 17 17 17 17 17 17 17 17 17 17 17 17 17 16 16 16 16 16 16 15 14 14 13 11 11 10 9 9 8 8 7 6 5

GFSMW_700_temp_030.txt.gz
Temp
11 11 10 9 9 10 12 11 12 12 12 11 11 11 11 11 11 11 10 11 11 11 11 10 9 10 10 9 9 9 9 9 8 6 7 6 7 6 6 6 6 6 6
12 11 11 10 9 11 13 12 12 12 12 12 11 11 11 11 11 11 11 11 11 11 11 11 11 11 10 10 9 9 9 9 9 7 6 6 6 6 6 7 8 7 7
13 12 13 12 12 12 14 13 13 13 12 12 12 11 11 11 11 11 11 11 11 11 11 11 10 11 10 10 9 9 10 10 9 8 7 7 6 6 6 6 7 7 9
13 12 12 13 14 13 14 14 13 13 12 12 12 12 12 12 12 11 11 12 11 11 12 11 11 11 11 10 10 10 10 10 10 9 9 8 7 7 7 7 7 7 8
14 13 13 14 14 13 14 14 13 13 13 12 12 12 12 12 12 12 12 12 12 12 12 12 11 11 11 11 10 10 10 10 10 10 9 9 8 7 7 7 7 8 7
15 14 13 13 12 12 13 14 14 13 13 13 13 13 12 12 12 12 12 12 13 12 12 12 11 11 11 11 11 11 11 10 10 10 10 9 8 8 8 7 7 7 6
16 15 14 13 14 14 15 14 14 13 13 13 13 13 13 13 13 13 12 13 13 13 12 12 12 12 12 11 11 11 11 11 11 11 10 10 10 9 9 8 6 6 7
17 16 15 14 15 15 15 15 14 14 14 14 13 13 13 13 13 13 13 13 13 13 13 13 13 12 12 12 11 11 11 11 11 11 10 10 10 10 9 9 9 8 6
17 16 15 14 16 15 15 15 15 15 14 14 14 13 13 13 13 13 13 13 13 13 13 13 13 13 13 12 11 11 11 11 11 11 11 10 10 10 10 9 9 8 8
18 17 16 15 17 16 15 15 15 15 15 14 14 14 14 13 13 13 13 13 13 13 13 14 13 13 13 13 12 11 11 11 11 11 11 11 11 11 10 10 10 9 8
18 17 16 15 17 17 16 15 15 15 15 15 15 14 14 14 14 14 13 13 13 13 13 13 13 13 13 13 13 12 12 12 12 12 12 11 11 11 11 10 10 10 9
18 18 17 16 15 17 17 16 16 16 16 15 15 15 15 14 14 14 14 14 13 13 13 13 14 13 14 14 13 13 12 12 12 12 12 12 11 11 11 11 11 10 10
19 18 17 16 15 17 17 17 17 17 16 16 15 15 15 15 15 15 14 14 14 14 14 14 14 14 13 13 13 13 13 12 12 12 12 12 12 11 11 11 11 11 10
18 18 17 17 16 15 17 17 17 17 16 16 16 16 16 16 15 15 15 15 15 14 14 14 14 14 14 13 14 14 13 13 13 12 12 12 12 12 11 11 11 11 11
18 18 18 17 17 16 16 15 16 17 17 17 17 17 16 16 16 16 15 15 15 15 15 15 15 14 14 14 14 14 14 14 14 13 13 13 13 12 12 12 12 11 11
17 17 17 17 16 16 16 16 16 16 17 17 17 17 17 17 16 16 16 16 16 15 15 15 15 15 15 15 14 14 15 14 14 14 13 13 13 13 13 12 12 11 11
16 16 16 17 16 16 16 16 17 17 17 18 18 18 18 18 17 17 17 17 17 16 16 16 16 16 16 16 15 14 14 15 15 14 14 14 14 14 14 13 13 12 12
15 15 15 15 16 17 17 17 18 17 18 18 18 18 18 18 18 18 17 17 17 17 16 16 16 16 17 16 16 15 14 14 15 15 15 15 14 14 14 13 13 13 12
14 14 14 15 16 16 16 16 16 17 17 17 18 18 18 18 19 19 18 18 17 17 17 16 16 17 17 16 16 15 15 15 15 15 15 15 15 15 14 14 14 13 13
13 14 14 15 15 16 16 16 16 16 17 18 18 18 18 18 19 19 19 18 17 17 17 17 16 17 17 16 16 16 15 15 15 15 16 16 16 15 14 15 14 14 13
14 14 14 14 15 15 15 15 15 15 17 18 18 18 18 18 19 19 19 18 18 17 17 17 17 17 17 17 16 16 16 16 15 15 15 15 15 15 15 14 14 14 13
14 14 14 14 14 14 15 15 16 17 17 17 17 18 18 18 18 19 18 18 18 18 17 17 17 17 17 17 17 17 17 16 16 15 15 14 14 14 14 14 14 13 13
12 13 14 14 14 15 15 16 16 16 17 16 17 17 17 18 18 18 18 18 18 18 17 17 17 17 17 17 17 17 17 16 16 16 16 14 14 14 13 13 13 13 12
12 13 14 14 13 15 15 16 16 17 17 17 17 17 17 17 17 17 17 17 18 17 17 17 17 17 17 17 17 17 17 18 17 16 15 15 13 13 13 13 14 13 13
12 13 13 14 15 15 15 16 16 16 16 17 17 17 17 17 17 17 17 17 17 17 17 17 16 16 16 17 17 17 16 17 16 16 15 15 15 14 13 13 13 13 13
11 12 12 14 14 15 15 15 16 16 16 16 17 16 17 17 17 17 17 16 16 16 16 15 15 16 16 16 16 15 15 15 15 15 16 16 16 16 15 15 14 12 11

GFSMW_700_temp_033.txt.gz
Temp
10 10 10 9 9 9 11 12 12 12 11 12 11 11 11 11 11 11 11 10 10 10 10 10 9 9 9 9 9 8 8 9 8 6 6 7 6 5 6 6 7 8 8
11 11 10 10 10 11 12 12 12 13 12 12 11 11 11 11 11 11 11 11 11 10 10 10 10 10 10 10 9 9 9 9 7 8 5 6 7 6 6 6 7 8 8
13 13 11 12 12 13 13 13 13 13 13 12 12 12 11 11 11 11 12 11 11 11 11 10 10 10 10 10 10 10 10 10 9 9 8 7 7 6 6 6 6 7 8
13 13 13 11 13 14 14 13 13 13 13 12 12 12 12 12 12 11 12 12 12 11 11 11 11 11 11 10 10 10 10 10 10 10 9 9 8 7 7 7 7 7 7
12 13 14 14 13 13 14 14 13 13 13 13 13 12 12 12 12 12 12 12 12 12 12 11 11 11 11 11 10 11 11 10 10 11 10 10 9 9 8 7 6 7 7
15 15 14 14 13 14 14 13 13 13 13 13 13 13 13 12 12 13 12 12 12 12 12 12 11 11 12 11 11 11 11 10 10 10 11 10 10 9 9 8 8 7 8
16 15 14 15 13 14 14 15 14 14 13 13 13 13 13 13 13 13 13 13 13 12 12 12 12 11 12 11 11 11 11 11 11 10 10 10 10 10 10 9 9 9 9
17 17 16 15 15 15 15 15 15 14 14 14 13 13 13 13 13 13 13 13 13 13 12 12 12 12 12 12 11 11 11 11 11 11 10 10 10 10 10 9 9 9 9
17 16 17 16 15 15 15 15 15 14 14 14 14 14 14 13 14 13 13 13 13 13 13 12 13 12 12 13 12 12 11 11 11 11 11 10 10 10 10 9 10 9 9
18 17 17 16 17 16 16 15 15 14 14 14 14 14 14 14 13 13 13 13 13 13 13 13 13 13 13 12 13 12 11 12 11 11 11 11 11 11 10 10 10 10 9
17 18 17 16 17 17 16 15 14 15 14 14 15 14 14 14 13 13 13 13 13 13 13 14 14 13 13 13 12 13 12 12 12 11 11 11 11 11 11 11 10 10 10
18 18 17 17 17 17 17 16 15 15 15 15 15 15 14 14 14 14 14 14 13 13 13 13 13 13 13 13 13 13 13 12 12 12 12 11 11 11 11 11 11 11 11
18 18 18 17 17 17 17 16 16 16 16 16 16 15 15 15 15 14 14 14 14 14 13 13 14 14 13 13 13 13 13 13 13 12 12 12 12 11 11 11 11 11 11
18 18 18 17 17 18 18 17 16 16 15 16 16 16 16 16 16 15 15 15 15 14 14 14 14 15 15 14 13 13 13 13 13 13 13 13 13 12 12 12 11 11 11
19 18 18 18 17 17 17 17 16 16 16 16 16 16 16 16 16 16 16 16 16 15 15 15 14 15 15 15 14 14 13 14 13 13 14 14 14 14 13 12 12 12 12
18 18 18 18 17 17 17 18 17 16 16 16 16 16 16 16 16 16 16 16 16 16 16 16 16 15 16 15 15 14 14 14 13 14 13 14 14 14 14 13 12 12 12
18 17 16 16 16 17 17 17 17 17 17 17 17 17 17 17 17 16 16 16 16 16 16 16 16 16 16 16 15 14 14 14 14 14 13 13 14 14 14 14 13 13 12
16 16 16 15 15 15 15 16 16 16 17 18 18 18 18 18 17 17 17 16 16 16 16 16 16 16 16 16 15 15 14 15 14 14 14 14 14 14 14 14 14 14 13
16 16 15 15 15 15 15 15 16 16 17 17 18 18 18 18 18 18 18 17 17 17 17 17 17 17 17 16 16 15 15 15 15 15 15 15 14 14 13 14 14 13 14
15 15 15 15 15 15 15 16 16 16 17 17 17 17 17 18 18 18 18 18 17 17 17 17 17 17 17 17 16 16 16 15 15 15 15 15 15 15 14 13 13 14 14
16 16 16 16 15 15 15 15 15 15 16 16 16 16 17 17 18 17 18 18 18 17 18 18 18 17 17 17 16 16 16 16 16 16 16 16 16 15 15 15 14 14 13
14 14 14 14 15 15 15 15 15 15 15 15 16 16 16 16 17 17 17 18 18 18 18 18 18 18 17 17 17 16 16 16 16 16 16 16 15 15 15 15 15 14 14
14 14 13 14 14 14 15 15 15 15 15 15 16 16 17 17 17 17 17 17 18 18 18 18 18 18 17 17 17 17 17 16 16 17 16 16 16 16 15 15 15 15 14
14 14 13 13 13 14 14 14 14 15 15 15 15 16 16 16 16 17 17 17 17 17 17 17 17 17 17 17 17 17 17 16 16 16 16 15 15 15 15 15 15 15 15
13 13 13 13 13 14 14 14 14 15 15 15 16 16 16 16 16 16 17 17 17 16 16 16 16 16 16 17 16 16 16 16 16 16 16 15 15 15 15 15 15 15 14
13 12 12 13 13 13 13 14 15 15 15 15 16 16 16 16 16 16 16 17 17 16 16 16 16 16 16 16 16 16 15 15 15 15 15 15 15 15 15 15 14 13 12